Satellite: GOES 12
Catalog number: 26871
Epoch time:      103031.16216598
Element set:     800 
Inclination:        0.3724 deg
RA of node:       276.8406 deg
Eccentricity:    0.0003287
Arg of perigee:   355.3269 deg
Mean anomaly:     175.6425 deg
Mean motion:    1.00363378 rev/day
Decay rate:   -1.4099E-006 rev/day^2
Epoch rev:             565
Checksum:              298

Satellite: PCSAT
Catalog number: 26931
Epoch time:      103031.46922056
Element set:     390 
Inclination:       67.0485 deg
RA of node:       302.2103 deg
Eccentricity:    0.0005164
Arg of perigee:   263.2068 deg
Mean anomaly:      96.8445 deg
Mean motion:   14.29105091 rev/day
Decay rate:    1.4400E-006 rev/day^2
Epoch rev:            6976
Checksum:              278

Satellite: SAPPHIRE
Catalog number: 26932
Epoch time:      103032.21927680
Element set:     385 
Inclination:       67.0567 deg
RA of node:       299.9884 deg
Eccentricity:    0.0005642
Arg of perigee:   239.6444 deg
Mean anomaly:     120.4099 deg
Mean motion:   14.29287628 rev/day
Decay rate:    1.0600E-006 rev/day^2
Epoch rev:            6989
Checksum:              339

Satellite: ENVISAT
Catalog number: 27386
Epoch time:      103032.14987712
Element set:     898 
Inclination:       98.5460 deg
RA of node:       100.9505 deg
Eccentricity:    0.0000886
Arg of perigee:    91.6646 deg
Mean anomaly:     268.4662 deg
Mean motion:   14.32250364 rev/day
Decay rate:    1.4099E-006 rev/day^2
Epoch rev:            4825
Checksum:              442

Satellite: IDEFIX/ARIANE 
Catalog number: 27422
Epoch time:      103032.22515996
Element set:     222 
Inclination:       98.6986 deg
RA of node:       111.5058 deg
Eccentricity:    0.0012309
Arg of perigee:   197.0067 deg
Mean anomaly:     163.0703 deg
Mean motion:   14.27959459 rev/day
Decay rate:    1.7500E-006 rev/day^2
Epoch rev:            3898
Checksum:              318

Satellite: FENGYUN 1D
Catalog number: 27431
Epoch time:      103031.84389083
Element set:     204 
Inclination:       98.7711 deg
RA of node:        81.2980 deg
Eccentricity:    0.0015542
Arg of perigee:   171.7734 deg
Mean anomaly:     188.3695 deg
Mean motion:   14.09174688 rev/day
Decay rate:   -1.7900E-006 rev/day^2
Epoch rev:            3687
Checksum:              326

Satellite: NOAA 17
Catalog number: 27453
Epoch time:      103031.85016246
Element set:     289 
Inclination:       98.7609 deg
RA of node:       103.1530 deg
Eccentricity:    0.0012561
Arg of perigee:    50.4901 deg
Mean anomaly:     309.7385 deg
Mean motion:   14.23281943 rev/day
Decay rate:    2.2900E-006 rev/day^2
Epoch rev:            3144
Checksum:              284

Satellite: HOT BIRD 6
Catalog number: 27499
Epoch time:      103013.80550721
Element set:     66 
Inclination:        0.0928 deg
RA of node:        32.8693 deg
Eccentricity:    0.0008090
Arg of perigee:   290.3889 deg
Mean anomaly:      92.5421 deg
Mean motion:    1.00271722 rev/day
Decay rate:    1.0600E-006 rev/day^2
Epoch rev:             147
Checksum:              269

Satellite: RUBIN 2
Catalog number: 27605
Epoch time:      103032.04432979
Element set:     43 
Inclination:       64.5551 deg
RA of node:       250.4557 deg
Eccentricity:    0.0029492
Arg of perigee:   117.2391 deg
Mean anomaly:     243.1718 deg
Mean motion:   14.71399324 rev/day
Decay rate:    1.9100E-006 rev/day^2
Epoch rev:             623
Checksum:              284

Satellite: STS 107
Catalog number: 27647
Epoch time:      103032.25000000
Element set:     63 
Inclination:       39.0164 deg
RA of node:       124.9099 deg
Eccentricity:    0.0008781
Arg of perigee:   145.1170 deg
Mean anomaly:     207.2382 deg
Mean motion:   16.01765594 rev/day
Decay rate:    7.0100E-004 rev/day^2
Epoch rev:             249
Checksum:              262


Read previous mail | Read next mail


 18.12.2025 02:41:58lGo back Go up